Location: Coll
(42.4728°N, 0.7714°E)
Time: 12:19:40
(UTC+00:00)

Cosmos 1697 Rocket - Pass Details

Date: 23 October 2020
Orbit: 831 x 845 km, 71.0° (Epoch: 01 December)

Event Time Altitude Azimuth Distance (km) Brightness Sun altitude
Rises 05:33:43 0° 333° (NNW) 3,402 5.5 -9.2°
Reaches altitude 10° 05:36:10 10° 331° (NNW) 2,466 4.8 -8.7°
Maximum altitude 05:41:47 68° 249° (WSW) 906 2.7 -7.7°
Drops below altitude 10° 05:47:22 10° 168° (SSE) 2,456 5.4 -6.7°
Sets 05:49:49 0° 166° (SSE) 3,387 6.2 -6.2°
